Weather History for KO69 - June, 2013

Change the Weather History Date:

Saturday, June 22, 2013

  Actual Average (KAPC) Record (KAPC)
Temperature  
Mean Temperature 65 °F 65 °F  
Max Temperature 84 °F 79 °F 97 °F (2006)
Min Temperature 46 °F 51 °F 43 °F (2005)
Degree Days  
Heating Degree Days 0    
Month to date heating degree days  
Since 1 June heating degree days  
Since 1 July heating degree days  
Cooling Degree Days 0    
Month to date cooling degree days  
Year to date cooling degree days  
Since 1 June cooling degree days  
Growing Degree Days 15 (Base 50)    
Moisture  
Dew Point 48 °F    
Average Humidity 60    
Maximum Humidity 93    
Minimum Humidity 27    
Precipitation  
Precipitation 0.00 in - 0.00 in (2015)
Month to date precipitation  
Year to date precipitation  
Since 1 July precipitation  
Sea Level Pressure  
Sea Level Pressure 29.90 in    
Wind  
Wind Speed 4 mph (West)    
Max Wind Speed 14 mph    
Max Gust Speed 18 mph    
Visibility 10 miles    
Events      
T = Trace of Precipitation, MM = Missing Value Source: NWS Daily Summary

Daily Weather History Graph

Daily Weather History Graph

Search for Another Location

Airport or City:

Trip Planner

Search our weather history database for the weather conditions in past years. The results will help you decide how hot, cold, wet, or windy it might be!

Date:

Astronomy

Jun. 22, 2013 Rise Set
Actual Time 5:47 AM PDT 8:37 PM PDT
Civil Twilight 5:15 AM PDT 9:09 PM PDT
Nautical Twilight 4:36 AM PDT 9:48 PM PDT
Astronomical Twilight 3:50 AM PDT 10:34 PM PDT
Moon 7:58 PM PDT (6/22) 5:04 AM PDT (6/22)
Length of Visible Light 15h 53m
Length of Day
14h 49m
Waxing Gibbous, 99% of the Moon is Illuminated
Jun 22
Waxing Gibbous
Jun 23
Full
Jun 29
Last Quarter
Jul 8
New
Jul 15
First Quarter

Hourly Weather History & Observations

Time (PDT) Temp. Windchill Dew Point Humidity Pressure Visibility Wind Dir Wind Speed Gust Speed Precip Events Conditions
12:15 AM 53.6 °F - 46.4 °F 77% 29.94 in 10.0 mi Calm Calm - N/A   Scattered Clouds
12:35 AM 53.6 °F - 46.4 °F 77% 29.94 in 10.0 mi North 3.5 mph - N/A   Mostly Cloudy
12:55 AM 51.8 °F - 46.4 °F 82% 29.94 in 10.0 mi Calm Calm - N/A   Mostly Cloudy
1:15 AM 53.6 °F - 46.4 °F 77% 29.93 in 10.0 mi NW 3.5 mph - N/A   Scattered Clouds
1:35 AM 51.8 °F - 46.4 °F 82% 29.93 in 10.0 mi Calm Calm - N/A   Partly Cloudy
1:55 AM 51.8 °F - 46.4 °F 82% 29.93 in 10.0 mi Calm Calm - N/A   Clear
2:15 AM 50.0 °F - 46.4 °F 87% 29.92 in 10.0 mi Calm Calm - N/A   Clear
2:35 AM 48.2 °F - 44.6 °F 87% 29.92 in 10.0 mi Calm Calm - N/A   Clear
2:55 AM 48.2 °F - 44.6 °F 87% 29.92 in 10.0 mi Calm Calm - N/A   Partly Cloudy
3:15 AM 50.0 °F - 46.4 °F 87% 29.92 in 10.0 mi Calm Calm - N/A   Scattered Clouds
3:35 AM 48.2 °F - 44.6 °F 87% 29.92 in 10.0 mi Calm Calm - N/A   Partly Cloudy
3:55 AM 46.4 °F - 44.6 °F 93% 29.92 in 10.0 mi Calm Calm - N/A   Partly Cloudy
4:15 AM 48.2 °F - 44.6 °F 87% 29.92 in 10.0 mi Calm Calm - N/A   Scattered Clouds
4:35 AM 48.2 °F - 44.6 °F 87% 29.91 in 10.0 mi Calm Calm - N/A   Partly Cloudy
4:55 AM 48.2 °F - 44.6 °F 87% 29.92 in 10.0 mi NW 3.5 mph - N/A   Partly Cloudy
5:15 AM 46.4 °F 45.2 °F 44.6 °F 93% 29.92 in 10.0 mi NNW 3.5 mph - N/A   Partly Cloudy
5:35 AM 48.2 °F - 44.6 °F 87% 29.92 in 10.0 mi Calm Calm - N/A   Clear
5:55 AM 48.2 °F - 44.6 °F 87% 29.92 in 8.0 mi North 4.6 mph - N/A   Clear
6:15 AM 48.2 °F - 44.6 °F 87% 29.92 in 9.0 mi Calm Calm - N/A   Clear
6:35 AM 48.2 °F - 44.6 °F 87% 29.93 in 9.0 mi Calm Calm - N/A   Clear
6:55 AM 50.0 °F - 46.4 °F 87% 29.93 in 10.0 mi Calm Calm - N/A   Clear
7:15 AM 53.6 °F - 48.2 °F 82% 29.93 in 9.0 mi Calm Calm - N/A   Clear
7:35 AM 57.2 °F - 46.4 °F 67% 29.94 in 10.0 mi Calm Calm - N/A   Clear
7:55 AM 57.2 °F - 46.4 °F 67% 29.94 in 9.0 mi West 4.6 mph - N/A   Clear
8:15 AM 59.0 °F - 46.4 °F 63% 29.94 in 9.0 mi West 4.6 mph - N/A   Clear
8:35 AM 60.8 °F - 46.4 °F 59% 29.94 in 10.0 mi West 3.5 mph - N/A   Clear
8:55 AM 64.4 °F - 48.2 °F 56% 29.95 in 10.0 mi WNW 4.6 mph - N/A   Clear
9:15 AM 66.2 °F - 48.2 °F 52% 29.95 in 10.0 mi NW 4.6 mph - N/A   Clear
9:35 AM 68.0 °F - 48.2 °F 49% 29.95 in 10.0 mi West 4.6 mph - N/A   Clear
9:55 AM 71.6 °F - 48.2 °F 43% 29.94 in 10.0 mi West 6.9 mph - N/A   Clear
10:15 AM 73.4 °F - 48.2 °F 41% 29.94 in 10.0 mi WSW 5.8 mph - N/A   Clear
10:35 AM 75.2 °F - 48.2 °F 38% 29.93 in 10.0 mi West 5.8 mph - N/A   Clear
10:55 AM 77.0 °F - 48.2 °F 36% 29.94 in 10.0 mi West 6.9 mph - N/A   Clear
11:15 AM 78.8 °F - 48.2 °F 34% 29.93 in 10.0 mi West 6.9 mph - N/A   Clear
11:35 AM 80.6 °F - 48.2 °F 32% 29.93 in 10.0 mi WSW 8.1 mph - N/A   Clear
11:55 AM 82.4 °F - 50.0 °F 32% 29.92 in 10.0 mi West 9.2 mph - N/A   Clear
12:15 PM 82.4 °F - 48.2 °F 30% 29.92 in 10.0 mi West 6.9 mph - N/A   Clear
12:35 PM 84.2 °F - 46.4 °F 27% 29.92 in 10.0 mi West 6.9 mph - N/A   Clear
12:55 PM 84.2 °F - 46.4 °F 27% 29.91 in 10.0 mi WNW 11.5 mph - N/A   Clear
1:15 PM 82.4 °F - 50.0 °F 32% 29.91 in 10.0 mi WNW 13.8 mph - N/A   Clear
1:35 PM 82.4 °F - 48.2 °F 30% 29.91 in 10.0 mi West 11.5 mph - N/A   Clear
1:55 PM 82.4 °F - 48.2 °F 30% 29.91 in 10.0 mi West 11.5 mph 17.3 mph N/A   Clear
2:15 PM 82.4 °F - 48.2 °F 30% 29.91 in 10.0 mi WNW 11.5 mph 17.3 mph N/A   Clear
2:35 PM 82.4 °F - 46.4 °F 28% 29.91 in 10.0 mi West 10.4 mph - N/A   Clear
2:55 PM 82.4 °F - 48.2 °F 30% 29.90 in 10.0 mi West 10.4 mph - N/A   Clear
3:15 PM 82.4 °F - 48.2 °F 30% 29.90 in 10.0 mi WSW 12.7 mph 17.3 mph N/A   Clear
3:35 PM 78.8 °F - 48.2 °F 34% 29.90 in 10.0 mi WSW 11.5 mph - N/A   Clear
3:55 PM 77.0 °F - 46.4 °F 34% 29.90 in 10.0 mi WSW 10.4 mph - N/A   Clear
4:15 PM 77.0 °F - 46.4 °F 34% 29.89 in 10.0 mi West 6.9 mph - N/A   Clear
4:35 PM 77.0 °F - 48.2 °F 36% 29.88 in 10.0 mi West 10.4 mph - N/A   Clear
4:55 PM 77.0 °F - 48.2 °F 36% 29.87 in 10.0 mi West 11.5 mph - N/A   Clear
5:15 PM 77.0 °F - 48.2 °F 36% 29.86 in 10.0 mi WSW 11.5 mph 16.1 mph N/A   Clear
5:35 PM 77.0 °F - 48.2 °F 36% 29.85 in 10.0 mi West 11.5 mph - N/A   Clear
5:55 PM 77.0 °F - 48.2 °F 36% 29.85 in 10.0 mi WSW 11.5 mph 18.4 mph N/A   Clear
6:15 PM 75.2 °F - 50.0 °F 41% 29.85 in 10.0 mi West 9.2 mph - N/A   Clear
6:35 PM 75.2 °F - 50.0 °F 41% 29.85 in 10.0 mi West 11.5 mph - N/A   Clear
6:55 PM 73.4 °F - 50.0 °F 44% 29.85 in 10.0 mi West 11.5 mph 16.1 mph N/A   Clear
7:15 PM 73.4 °F - 50.0 °F 44% 29.85 in 10.0 mi West 12.7 mph - N/A   Clear
7:35 PM 71.6 °F - 50.0 °F 46% 29.85 in 10.0 mi West 13.8 mph 17.3 mph N/A   Clear
7:55 PM 69.8 °F - 50.0 °F 49% 29.85 in 10.0 mi West 13.8 mph - N/A   Clear
8:15 PM 68.0 °F - 51.8 °F 56% 29.85 in 10.0 mi WNW 8.1 mph - N/A   Clear
8:35 PM 64.4 °F - 51.8 °F 64% 29.85 in 10.0 mi WNW 11.5 mph - N/A   Clear
8:55 PM 64.4 °F - 51.8 °F 64% 29.85 in 10.0 mi WNW 11.5 mph 16.1 mph N/A   Clear
9:15 PM 62.6 °F - 53.6 °F 72% 29.86 in 7.0 mi West 9.2 mph - N/A   Clear
9:35 PM 60.8 °F - 53.6 °F 77% 29.87 in 10.0 mi WNW 9.2 mph - N/A   Clear
9:55 PM 59.0 °F - 53.6 °F 82% 29.87 in 10.0 mi WNW 6.9 mph - N/A   Clear
10:15 PM 59.0 °F - 53.6 °F 82% 29.88 in 10.0 mi NW 4.6 mph - N/A   Clear
10:35 PM 59.0 °F - 53.6 °F 82% 29.88 in 10.0 mi WNW 6.9 mph - N/A   Clear
10:55 PM 57.2 °F - 53.6 °F 88% 29.88 in 10.0 mi NW 4.6 mph - N/A   Clear
11:15 PM 57.2 °F - 53.6 °F 88% 29.87 in 6.0 mi NW 6.9 mph - N/A   Clear
11:35 PM 57.2 °F - 53.6 °F 88% 29.87 in 10.0 mi WNW 9.2 mph - N/A   Clear
11:55 PM 57.2 °F - 53.6 °F 88% 29.87 in 10.0 mi WNW 8.1 mph - N/A   Clear